Location: Ethel Rock
(53.4667°N, 4.5667°W)
Time: 01:16:37
(UTC+00:00)

Cosmos 2219 Rocket - Pass Details

Date: 24 October 2020
Orbit: 828 x 846 km, 71.0° (Epoch: 26 November)

Event Time Altitude Azimuth Distance (km) Brightness Sun altitude
Exits shadow 05:52:17 - 324° (NW) 3,352 4.9 -11.1°
Reaches altitude 10° 05:55:13 10° 340° (NNW) 2,474 4.4 -10.6°
Maximum altitude 05:59:24 21° 28° (NNE) 1,833 4.2 -10.0°
Drops below altitude 10° 06:03:33 10° 76° (ENE) 2,459 5.9 -9.4°
Sets 06:06:38 0° 93° (E) 3,388 7.7 -8.9°
